Location: Gunung Kajang
(2.4167°N, 113.7167°E)
Time: 22:51:24
(UTC+00:00)

Cosmos 44 - Pass Details

Date: 29 May 2022
Orbit: 594 x 767 km, 65.1° (Epoch: 24 June)

Event Time Altitude Azimuth Distance (km) Brightness Sun altitude
Rises 12:01:36 0° 353° (N) 2,833 6.9 -21.9°
Reaches altitude 10° 12:03:57 10° 2° (N) 1,947 5.9 -22.5°
Enters shadow 12:06:45 30° 35° (NE) 1,116 4.2 -23.1°
